Terminal Aerodrome Forecast
Issued by NWS

Home | Current Version | Previous Version | Text Only | Print | Product List | Glossary On
Versions: 1 2 3 4 5 6 7 8 9 10 11 12 13
000
FTUS41 KBTV 040534
TAFRUT
TAF
KRUT 040534Z 0406/0506 13004KT P6SM FEW250
      TEMPO 0406/0410 4SM BR
     FM041700 05008KT P6SM FEW250
     FM050000 13008KT P6SM SKC
      AMD LTD TO CLD VIS AND WIND=

USA.gov is the U.S. government's official web portal to all federal, state and local government web resources and services.